Regional Weather Roundup
Issued by NWS

Home | Current Version | Previous Version | Graphics & Text | Print | Product List | Glossary On
Versions: 1 2 3 4 5 6 7 8 9 10 11 12 13 14 15 16 17 18 19 20 21 22 23 24 25 26 27 28 29 30 31 32 33 34 35 36 37 38 39 40 41 42 43 44 45 46 47 48 49 50
000
ASUS43 KMKX 251400
RWRWI

WISCONSIN REGIONAL WEATHER ROUNDUP
NATIONAL WEATHER SERVICE MILWAUKEE/SULLIVAN WI
900 AM CDT FRI MAY 25 2018

NOTE: "FAIR" INDICATES FEW OR NO CLOUDS BELOW 12,000 FEET WITH NO
SIGNIFICANT WEATHER AND/OR OBSTRUCTIONS TO VISIBILITY.

WIZ001-002-006>008-014>016-023>028-251500-
NORTHWEST WISCONSIN

CITY           SKY/WX    TMP DP  RH WIND       PRES   REMARKS
SUPERIOR ARPT  FAIR      71  63  76 SW7       29.75S
ASHLAND        FAIR      70  62  76 SW7       29.75F
HAYWARD        FAIR      66  62  87 S5        29.79F
SIREN          FAIR      70  59  67 S6        29.78
CUMBERLAND     FAIR      63  59  88 S8        29.81F
RICE LAKE      FAIR      64  62  93 S8        29.82F
CHETEK         FAIR      64  63  97 S6        29.82F
LADYSMITH      FAIR      66  64  91 SE5       29.84F
EAU CLAIRE     NOT AVBL
MENOMONIE      PTSUNNY   64  64 100 SE7       29.82S
NEW RICHMOND   FAIR      67  62  83 S10       29.81F
OSCEOLA        FAIR      69  63  82 S7        29.83F
$$

WIZ003>005-009-010-017-018-251500-
NORTH CENTRAL WISCONSIN

CITY           SKY/WX    TMP DP  RH WIND       PRES   REMARKS
MANITOWISH WTR DRIZZLE   64  64 100 SW6       29.83S
ARBOR VITAE    PTSUNNY   66  62  89 SW8       29.83F
WOODRUFF       PTSUNNY   66  62  89 SW8       29.83F
RHINELANDER    PTSUNNY   70  62  76 SW10      29.85F
EAGLE RIVER    FAIR      67  62  84 SW7       29.84F
LAND O LAKES   PTSUNNY   67  61  81 SW3       29.84F
PHILLIPS       FAIR      65  64  99 SW7       29.84R
TOMAHAWK       LGT RAIN  66  60  82 SW3       29.86F
MEDFORD        RAIN      64  61  92 CALM      29.85F
MERRILL        NOT AVBL
$$

WIZ029-030-035-036-043>047-251500-
CENTRAL WISCONSIN

CITY           SKY/WX    TMP DP  RH WIND       PRES   REMARKS
WAUSAU         FAIR      76  62  62 W9        29.85F
MOSINEE        MOSUNNY   73  64  73 W9G18     29.89S
MARSHFIELD     FAIR      72  61  68 W9        29.88F
STEVENS POINT  FAIR      72  63  73 W13G22    29.89S
WAUPACA        FAIR      81  65  58 SW12      29.87F HX  82
WAUTOMA        FAIR      76  65  68 W10       29.89F
WISC RAPIDS    FAIR      74  62  66 W7        29.90S
CAMP DOUGLAS   NOT AVBL
$$

WIZ011>013-019>022-031-037>040-048>050-251500-
NORTHEAST WISCONSIN

CITY           SKY/WX    TMP DP  RH WIND       PRES   REMARKS
ANTIGO         FAIR      73  62  68 W15       29.87F
SHAWANO        FAIR      78  64  63 SW8       29.85F
OCONTO         FAIR      79  64  60 W10       29.83F HX  80
STURGEON BAY   FAIR      80  64  58 W13G20    29.85F HX  82
GREEN BAY      FAIR      80  65  59 W14       29.86F HX  82
MANITOWOC      FAIR      81  63  54 SW14      29.87F HX  82
APPLETON       MOSUNNY   75  59  57 SW12      29.86F
CLINTONVILLE   FAIR      77  62  60 SW7       29.85F
OSHKOSH        FAIR      77  64  64 VRB7      29.88S
$$

WIZ032>034-041-042-053>061-251500-
SOUTHWEST WISCONSIN

CITY           SKY/WX    TMP DP  RH WIND       PRES   REMARKS
LA CROSSE      FAIR      77  64  64 N5        29.89S
SPARTA         FAIR      71  65  81 CALM      29.90F
VIROQUA        FAIR      74  66  77 W3        29.91F
BOSCOBEL       FAIR      77  65  66 W3        29.89F
PRAIRIE DU CHI FAIR      74  63  66 S5        29.88F
PLATTEVILLE    FAIR      72  66  81 S7        29.92F
$$

WIZ056-057-062-063-064-067-068-251500-
SOUTH CENTRAL WISCONSIN

CITY           SKY/WX    TMP DP  RH WIND       PRES   REMARKS
REEDSBURG      FAIR      76  65  68 W5        29.90S
BARABOO/DELLS  FAIR      76  62  62 W6        29.91R
LONE ROCK      FAIR      77  65  66 CALM      29.90S
MINERAL POINT  FAIR      72  64  78 S3        29.93S
MADISON        PTSUNNY   77  63  61 W3        29.90F
MIDDLETON      FAIR      77  62  60 SW9       29.91F
WATERTOWN      FAIR      74  64  69 SW8       29.91F
MONROE         FAIR      75  61  60 SW10      29.93S
JANESVILLE     MOSUNNY   79  61  53 SW10      29.92F HX  80
$$

WIZ051-052-058>065-066-070>072-251500-
SOUTHEAST WISCONSIN

CITY           SKY/WX    TMP DP  RH WIND       PRES   REMARKS
MILWAUKEE      FAIR      79  60  52 SW10      29.91F HX  80
WAUKESHA       SUNNY     75  61  60 SW6       29.93F
MILWAUKEE/TIMM SUNNY     77  55  47 SW8       29.92S
RACINE         FAIR      79  60  52 SW10      29.93F HX  80
BURLINGTON     FAIR      75  61  60 SW6       29.93S
KENOSHA        FAIR      78  61  55 SW10      29.93F HX  80
FOND DU LAC    FAIR      76  62  62 SW8       29.89S
SHEBOYGAN      FAIR      79  61  53 W13       29.88F HX  80
WEST BEND      FAIR      77  59  53 W9        29.91S
JUNEAU         FAIR      73  63  70 SW7       29.92S
$$

LSZ147-162-251500-
LAKE SUPERIOR

STATION/POSITION TIME  TEMP    WIND        PRES    WAVE
                       AIR SEA DIR/SP/G            HT/PER
                 (UTC) (F)     (DEG/KT/KT) (MB)    (FT/S)
W MID LAKE BUOY  1250   39 36  180/  4/  4 1008.4R   1
DEVILS ISLAND    1300   49     300/  6/  7 1008.0F
SAXON HARBOR     1330   70     200/ 10/ 16 1006.8F
$$

LMZ867-665-643>646-251500-
LAKE MICHIGAN

STATION/POSITION TIME  TEMP    WIND        PRES    WAVE
                       AIR SEA DIR/SP/G            HT/PER
                 (UTC) (F)     (DEG/KT/KT) (MB)    (FT/S)
N MID LAKE BUOY  1340   42 38  190/  8/ 10 1010.5F
NORTHPORT PIER   1340          220/  4/  6 1010.2F
KEWAUNEE LAKESHO 1330   59     150/  4/  7 1010.7F
SHEBOYGAN LAKESH 1300   69     230/  7/  7 1011.9F
PORT WASHINGTON  1330   63     120/  2/  4 1013.2F
ATWATER BUOY     1307   60 49  180/  6/  8 1013.0    0
MILWAUKEE LAKESH 1330   75     240/  7/  8   N/A
S MID LAKE BUOY  1250   48 39  190/  8/ 10 1014.3R   0
KENOSHA   LAKESH 1300   74                 1013.5
$$

TC  - TEMPERATURE IN CELSIUS
VSB - VISIBILITY IN STATUTE MILES
WCI - WIND CHILL INDEX
HX  - HEAT INDEX





USA.gov is the U.S. government's official web portal to all federal, state and local government web resources and services.